Willimantic, CT

6:59 PM EST on January 23, 2018 (GMT -0500)
Windham

Weather History for KIJD - September, 2013

Change the Weather History Date:

Monday, September 2, 2013

  Actual Average Record
Temperature  
Mean Temperature 74 °F -  
Max Temperature 79 °F 77 °F 100 °F (1953)
Min Temperature 70 °F 52 °F 38 °F (1963)
Cooling Degree Days 9    
Growing Degree Days 24 (Base 50)    
Moisture  
Dew Point 71 °F    
Average Humidity 90    
Maximum Humidity 100    
Minimum Humidity 71    
Precipitation  
Precipitation 0.49 in - - ()
Sea Level Pressure  
Sea Level Pressure 29.79 in    
Wind  
Wind Speed 4 mph (South)    
Max Wind Speed 15 mph    
Max Gust Speed 25 mph    
Visibility 7 miles    
Events Fog , Rain , Thunderstorm    
Averages and records for this station are not official NWS values.
T = Trace of Precipitation, MM = Missing Value Source: NWS Daily Summary

Daily Weather History Graph

Daily Weather History Graph

Search for Another Location

Airport or City:

Trip Planner

Search our weather history database for the weather conditions in past years. The results will help you decide how hot, cold, wet, or windy it might be!

Date:

Astronomy

Sep. 02, 2013 Rise Set
Actual Time 6:15 AM EDT 7:20 PM EDT
Civil Twilight 5:47 AM EDT 7:48 PM EDT
Nautical Twilight 5:13 AM EDT 8:22 PM EDT
Astronomical Twilight 4:37 AM EDT 8:57 PM EDT
Moon 3:28 AM EDT (9/2) 5:32 PM EDT (9/2)
Length of Visible Light 14h 01m
Length of Day
13h 04m
Waning Crescent, 8% of the Moon is Illuminated
Sep 2
Waning Crescent
Sep 5
New
Sep 12
First Quarter
Sep 19
Full
Sep 26
Last Quarter

Hourly Weather History & Observations

Time (EDT) Temp. Dew Point Humidity Pressure Visibility Wind Dir Wind Speed Gust Speed Precip Events Conditions
12:52 AM 73.0 °F 71.1 °F 93% 29.85 in 7.0 mi SSE 4.6 mph - N/A   Overcast
1:01 AM 73.4 °F 71.6 °F 94% 29.85 in 9.0 mi SSE 5.8 mph - N/A   Overcast
1:14 AM 73.4 °F 71.6 °F 94% 29.85 in 8.0 mi SSE 4.6 mph - N/A   Overcast
1:52 AM 73.0 °F 71.1 °F 93% 29.84 in 6.0 mi SSE 3.5 mph - N/A   Overcast
2:52 AM 73.0 °F 71.1 °F 93% 29.83 in 3.0 mi South 4.6 mph - N/A   Overcast
3:33 AM 73.4 °F 71.6 °F 94% 29.82 in 8.0 mi SSE 3.5 mph - 0.01 in   Overcast
3:37 AM 73.4 °F 71.6 °F 94% 29.83 in 7.0 mi SSE 4.6 mph - 0.01 in Thunderstorm Overcast
3:52 AM 73.0 °F 71.1 °F 93% 29.81 in 7.0 mi Variable 3.5 mph - 0.01 in Thunderstorm Thunderstorm
4:07 AM 73.4 °F 71.6 °F 94% 29.81 in 4.0 mi SSE 3.5 mph - 0.03 in Rain Heavy Rain
4:43 AM 73.4 °F 71.6 °F 94% 29.82 in 8.0 mi SSW 3.5 mph - 0.03 in   Mostly Cloudy
4:52 AM 73.0 °F 71.1 °F 93% 29.81 in 7.0 mi Calm Calm - 0.03 in   Mostly Cloudy
5:18 AM 73.4 °F 71.6 °F 94% 29.83 in 4.0 mi South 3.5 mph - 0.03 in Rain , Thunderstorm Light Rain
5:27 AM 73.4 °F 71.6 °F 94% 29.83 in 4.0 mi Calm Calm - 0.04 in Rain , Thunderstorm Light Rain
5:50 AM 73.4 °F 71.6 °F 94% 29.81 in 7.0 mi SSE 5.8 mph - 0.06 in Rain , Thunderstorm Light Rain
5:52 AM 73.0 °F 70.0 °F 90% 29.81 in 7.0 mi SE 3.5 mph - 0.06 in Rain , Thunderstorm Light Rain
6:11 AM 73.4 °F 69.8 °F 88% 29.83 in 10.0 mi Calm Calm - 0.01 in Rain Light Rain
6:41 AM 71.6 °F 69.8 °F 94% 29.83 in 10.0 mi Calm Calm - 0.01 in   Mostly Cloudy
6:49 AM 71.6 °F 71.6 °F 100% 29.83 in 10.0 mi Calm Calm - 0.01 in   Overcast
6:52 AM 72.0 °F 71.1 °F 97% 29.82 in 10.0 mi Calm Calm - 0.01 in   Overcast
7:37 AM 73.4 °F 69.8 °F 88% 29.82 in 10.0 mi Calm Calm - 0.01 in   Mostly Cloudy
7:52 AM 73.0 °F 71.1 °F 93% 29.82 in 10.0 mi Calm Calm - 0.01 in   Mostly Cloudy
8:01 AM 73.4 °F 71.6 °F 94% 29.83 in 10.0 mi Calm Calm - N/A   Mostly Cloudy
8:52 AM 73.0 °F 71.1 °F 93% 29.82 in 10.0 mi SE 3.5 mph - N/A   Overcast
9:52 AM 73.9 °F 72.0 °F 93% 29.82 in 9.0 mi South 4.6 mph - N/A   Overcast
10:52 AM 75.0 °F 72.0 °F 90% 29.81 in 8.0 mi South 8.1 mph - N/A   Overcast
11:35 AM 77.0 °F 73.4 °F 89% 29.81 in 10.0 mi SSW 6.9 mph - N/A   Overcast
11:47 AM 78.8 °F 73.4 °F 83% 29.81 in 9.0 mi SSW 8.1 mph - N/A   Overcast
11:52 AM 77.0 °F 72.0 °F 84% 29.81 in 9.0 mi South 5.8 mph - N/A   Overcast
12:13 PM 78.8 °F 71.6 °F 78% 29.80 in 10.0 mi South 8.1 mph - N/A Thunderstorm Overcast
12:44 PM 75.2 °F 69.8 °F 83% 29.81 in 1.2 mi West 15.0 mph 25.3 mph 0.13 in Rain , Thunderstorm Heavy Thunderstorms and Rain
12:52 PM 70.0 °F 68.0 °F 93% 29.78 in 0.5 mi NNE 9.2 mph 25.3 mph 0.37 in Fog , Rain , Thunderstorm Heavy Rain
12:57 PM 71.6 °F 68.0 °F 88% 29.80 in 1.0 mi Variable 4.6 mph - 0.00 in Rain , Thunderstorm Rain
1:00 PM 71.6 °F 68.0 °F 88% 29.80 in 3.0 mi SW 6.9 mph - 0.00 in Rain , Thunderstorm Light Rain
1:13 PM 73.4 °F 69.8 °F 88% 29.79 in 10.0 mi Calm Calm - 0.00 in   Mostly Cloudy
1:52 PM 75.9 °F 69.1 °F 79% 29.78 in 10.0 mi SSE 5.8 mph - 0.00 in   Scattered Clouds
2:52 PM 77.0 °F 66.9 °F 71% 29.77 in 10.0 mi South 8.1 mph - N/A   Scattered Clouds
3:30 PM 77.0 °F 68.0 °F 74% 29.78 in 10.0 mi South 4.6 mph - N/A   Mostly Cloudy
3:50 PM 75.2 °F 71.6 °F 89% 29.77 in 10.0 mi South 5.8 mph - 0.00 in   Overcast
3:52 PM 75.9 °F 71.1 °F 85% 29.77 in 10.0 mi South 4.6 mph - 0.00 in   Overcast
4:52 PM 75.9 °F 72.0 °F 87% 29.73 in 9.0 mi Variable 4.6 mph - N/A   Overcast
5:28 PM 77.0 °F 71.6 °F 83% 29.73 in 8.0 mi SSW 5.8 mph - N/A   Scattered Clouds
5:48 PM 77.0 °F 71.6 °F 83% 29.72 in 8.0 mi South 3.5 mph - N/A   Mostly Cloudy
5:52 PM 77.0 °F 72.0 °F 84% 29.72 in 8.0 mi South 3.5 mph - N/A   Mostly Cloudy
6:44 PM 77.0 °F 71.6 °F 83% 29.73 in 7.0 mi South 4.6 mph - N/A   Overcast
6:52 PM 75.9 °F 72.0 °F 87% 29.73 in 7.0 mi South 6.9 mph - N/A   Overcast
7:52 PM 75.9 °F 72.0 °F 87% 29.72 in 8.0 mi SSE 3.5 mph - N/A   Overcast
8:06 PM 75.2 °F 71.6 °F 89% 29.72 in 7.0 mi SSE 4.6 mph - N/A   Overcast
8:52 PM 73.9 °F 72.0 °F 93% 29.74 in 6.0 mi Calm Calm - N/A   Mostly Cloudy
9:52 PM 73.9 °F 72.0 °F 93% 29.75 in 6.0 mi Calm Calm - N/A   Overcast
10:09 PM 73.4 °F 71.6 °F 94% 29.76 in 7.0 mi South 3.5 mph - N/A   Overcast
10:52 PM 73.9 °F 71.1 °F 91% 29.76 in 6.0 mi Calm Calm - N/A   Overcast
11:04 PM 73.4 °F 71.6 °F 94% 29.76 in 6.0 mi Calm Calm - N/A   Mostly Cloudy
11:52 PM 72.0 °F 71.1 °F 97% 29.77 in 4.0 mi Calm Calm - N/A   Mostly Cloudy